Year,Month,Day,Hour,Minute,Value (Times are PST for temperature in C)
2013,11,14,00,00,7.50
2013,11,14,00,01,7.50
2013,11,14,00,02,7.50
2013,11,14,00,03,7.50
2013,11,14,00,04,7.60
2013,11,14,00,05,7.60
2013,11,14,00,06,7.60
2013,11,14,00,07,7.60
2013,11,14,00,08,7.60
2013,11,14,00,09,7.60
2013,11,14,00,10,7.60
2013,11,14,00,11,7.60
2013,11,14,00,12,7.60
2013,11,14,00,13,7.60
2013,11,14,00,14,7.60
2013,11,14,00,15,7.70
2013,11,14,00,16,7.70
2013,11,14,00,17,7.70
2013,11,14,00,18,7.70
2013,11,14,00,19,7.70
2013,11,14,00,20,7.70
2013,11,14,00,21,7.70
2013,11,14,00,22,7.70
2013,11,14,00,23,7.70
2013,11,14,00,24,7.70
2013,11,14,00,25,7.70
2013,11,14,00,26,7.70
2013,11,14,00,27,7.70
2013,11,14,00,28,7.70
2013,11,14,00,29,7.70
2013,11,14,00,30,7.80
2013,11,14,00,31,7.80
2013,11,14,00,32,7.80
2013,11,14,00,33,7.80
2013,11,14,00,34,7.80
2013,11,14,00,35,7.80
2013,11,14,00,36,7.80
2013,11,14,00,37,7.80
2013,11,14,00,38,7.80
2013,11,14,00,39,7.80
2013,11,14,00,40,7.80
2013,11,14,00,41,7.80
2013,11,14,00,42,7.80
2013,11,14,00,43,7.80
2013,11,14,00,44,7.80
2013,11,14,00,45,7.80
2013,11,14,00,46,7.80
2013,11,14,00,47,7.80
2013,11,14,00,48,7.80
2013,11,14,00,49,7.80
2013,11,14,00,50,7.80
2013,11,14,00,51,7.80
2013,11,14,00,52,7.80
2013,11,14,00,53,7.80
2013,11,14,00,54,7.80
2013,11,14,00,55,7.80
2013,11,14,00,56,7.80
2013,11,14,00,57,7.80
2013,11,14,00,58,7.80
2013,11,14,00,59,7.80
2013,11,14,01,00,7.80
2013,11,14,01,01,7.80
2013,11,14,01,02,7.80
2013,11,14,01,03,7.80
2013,11,14,01,04,7.80
2013,11,14,01,05,7.80
2013,11,14,01,06,7.80
2013,11,14,01,07,7.80
2013,11,14,01,08,7.80
2013,11,14,01,09,7.80
2013,11,14,01,10,7.80
2013,11,14,01,11,7.80
2013,11,14,01,12,7.80
2013,11,14,01,13,7.80
2013,11,14,01,14,7.80
2013,11,14,01,15,7.80
2013,11,14,01,16,7.80
2013,11,14,01,17,7.80
2013,11,14,01,18,7.80
2013,11,14,01,19,7.80
2013,11,14,01,20,7.80
2013,11,14,01,21,7.80
2013,11,14,01,22,7.70
2013,11,14,01,23,7.80
2013,11,14,01,24,7.80
2013,11,14,01,25,7.70
2013,11,14,01,26,7.70
2013,11,14,01,27,7.70
2013,11,14,01,28,7.70
2013,11,14,01,29,7.70
2013,11,14,01,30,7.70
2013,11,14,01,31,7.70
2013,11,14,01,32,7.70
2013,11,14,01,33,7.70
2013,11,14,01,34,7.70
2013,11,14,01,35,7.70
2013,11,14,01,36,7.70
2013,11,14,01,37,7.70
2013,11,14,01,38,7.70
2013,11,14,01,39,7.70
2013,11,14,01,40,7.70
2013,11,14,01,41,7.70
2013,11,14,01,42,7.70
2013,11,14,01,43,7.70
2013,11,14,01,44,7.70
2013,11,14,01,45,7.70
2013,11,14,01,46,7.70
2013,11,14,01,47,7.70
2013,11,14,01,48,7.70
2013,11,14,01,49,7.70
2013,11,14,01,50,7.70
2013,11,14,01,51,7.70
2013,11,14,01,52,7.70
2013,11,14,01,53,7.70
2013,11,14,01,54,7.70
2013,11,14,01,55,7.70
2013,11,14,01,56,7.70
2013,11,14,01,57,7.70
2013,11,14,01,58,7.70
2013,11,14,01,59,7.70
2013,11,14,02,00,7.70
2013,11,14,02,01,7.70
2013,11,14,02,02,7.70
2013,11,14,02,03,7.70
2013,11,14,02,04,7.70
2013,11,14,02,05,7.60
2013,11,14,02,06,7.60
2013,11,14,02,07,7.70
2013,11,14,02,08,7.70
2013,11,14,02,09,7.70
2013,11,14,02,10,7.70
2013,11,14,02,11,7.70
2013,11,14,02,12,7.70
2013,11,14,02,13,7.70
2013,11,14,02,14,7.70
2013,11,14,02,15,7.70
2013,11,14,02,16,7.70
2013,11,14,02,17,7.60
2013,11,14,02,18,7.60
2013,11,14,02,19,7.60
2013,11,14,02,20,7.60
2013,11,14,02,21,7.60
2013,11,14,02,22,7.60
2013,11,14,02,23,7.60
2013,11,14,02,24,7.60
2013,11,14,02,25,7.60
2013,11,14,02,26,7.60
2013,11,14,02,27,7.60
2013,11,14,02,28,7.60
2013,11,14,02,29,7.60
2013,11,14,02,30,7.60
2013,11,14,02,31,7.60
2013,11,14,02,32,7.60
2013,11,14,02,33,7.60
2013,11,14,02,34,7.60
2013,11,14,02,35,7.60
2013,11,14,02,36,7.60
2013,11,14,02,37,7.60
2013,11,14,02,38,7.60
2013,11,14,02,39,7.60
2013,11,14,02,40,7.60
2013,11,14,02,41,7.60
2013,11,14,02,42,7.60
2013,11,14,02,43,7.60
2013,11,14,02,44,7.60
2013,11,14,02,45,7.60
2013,11,14,02,46,7.50
2013,11,14,02,47,7.60
2013,11,14,02,48,7.50
2013,11,14,02,49,7.50
2013,11,14,02,50,7.50
2013,11,14,02,51,7.50
2013,11,14,02,52,7.50
2013,11,14,02,53,7.50
2013,11,14,02,54,7.50
2013,11,14,02,55,7.50
2013,11,14,02,56,7.50
2013,11,14,02,57,7.40
2013,11,14,02,58,7.40
2013,11,14,02,59,7.40
2013,11,14,03,00,7.40
2013,11,14,03,01,7.40
2013,11,14,03,02,7.40
2013,11,14,03,03,7.40
2013,11,14,03,04,7.30
2013,11,14,03,05,7.30
2013,11,14,03,06,7.30
2013,11,14,03,07,7.30
2013,11,14,03,08,7.30
2013,11,14,03,09,7.30
2013,11,14,03,10,7.30
2013,11,14,03,11,7.40
2013,11,14,03,12,7.40
2013,11,14,03,13,7.40
2013,11,14,03,14,7.40
2013,11,14,03,15,7.40
2013,11,14,03,16,7.40
2013,11,14,03,17,7.40
2013,11,14,03,18,7.40
2013,11,14,03,19,7.40
2013,11,14,03,20,7.40
2013,11,14,03,21,7.40
2013,11,14,03,22,7.40
2013,11,14,03,23,7.40
2013,11,14,03,24,7.50
2013,11,14,03,25,7.50
2013,11,14,03,26,7.50
2013,11,14,03,27,7.50
2013,11,14,03,28,7.50
2013,11,14,03,29,7.50
2013,11,14,03,30,7.50
2013,11,14,03,31,7.50
2013,11,14,03,32,7.60
2013,11,14,03,33,7.60
2013,11,14,03,34,7.60
2013,11,14,03,35,7.60
2013,11,14,03,36,7.60
2013,11,14,03,37,7.60
2013,11,14,03,38,7.60
2013,11,14,03,39,7.60
2013,11,14,03,40,7.60
2013,11,14,03,41,7.60
2013,11,14,03,42,7.60
2013,11,14,03,43,7.60
2013,11,14,03,44,7.60
2013,11,14,03,45,7.60
2013,11,14,03,46,7.60
2013,11,14,03,47,7.60
2013,11,14,03,48,7.70
2013,11,14,03,49,7.70
2013,11,14,03,50,7.70
2013,11,14,03,51,7.70
2013,11,14,03,52,7.70
2013,11,14,03,53,7.70
2013,11,14,03,54,7.70
2013,11,14,03,55,7.70
2013,11,14,03,56,7.70
2013,11,14,03,57,7.70
2013,11,14,03,58,7.70
2013,11,14,03,59,7.70
2013,11,14,04,00,7.70
2013,11,14,04,01,7.70
2013,11,14,04,02,7.70
2013,11,14,04,03,7.70
2013,11,14,04,04,7.60
2013,11,14,04,05,7.60
2013,11,14,04,06,7.60
2013,11,14,04,07,7.60
2013,11,14,04,08,7.60
2013,11,14,04,09,7.60
2013,11,14,04,10,7.60
2013,11,14,04,11,7.60
2013,11,14,04,12,7.60
2013,11,14,04,13,7.60
2013,11,14,04,14,7.60
2013,11,14,04,15,7.60
2013,11,14,04,16,7.60
2013,11,14,04,17,7.60
2013,11,14,04,18,7.50
2013,11,14,04,19,7.50
2013,11,14,04,20,7.50
2013,11,14,04,21,7.50
2013,11,14,04,22,7.50
2013,11,14,04,23,7.50
2013,11,14,04,24,7.50
2013,11,14,04,25,7.50
2013,11,14,04,26,7.50
2013,11,14,04,27,7.40
2013,11,14,04,28,7.40
2013,11,14,04,29,7.40
2013,11,14,04,30,7.40
2013,11,14,04,31,7.40
2013,11,14,04,32,7.40
2013,11,14,04,33,7.40
2013,11,14,04,34,7.40
2013,11,14,04,35,7.40
2013,11,14,04,36,7.40
2013,11,14,04,37,7.40
2013,11,14,04,38,7.40
2013,11,14,04,39,7.40
2013,11,14,04,40,7.40
2013,11,14,04,41,7.40
2013,11,14,04,42,7.30
2013,11,14,04,43,7.30
2013,11,14,04,44,7.30
2013,11,14,04,45,7.30
2013,11,14,04,46,7.30
2013,11,14,04,47,7.30
2013,11,14,04,48,7.30
2013,11,14,04,49,7.30
2013,11,14,04,50,7.30
2013,11,14,04,51,7.30
2013,11,14,04,52,7.30
2013,11,14,04,53,7.30
2013,11,14,04,54,7.30
2013,11,14,04,55,7.30
2013,11,14,04,56,7.30
2013,11,14,04,57,7.20
2013,11,14,04,58,7.20
2013,11,14,04,59,7.20
2013,11,14,05,00,7.20
2013,11,14,05,01,7.20
2013,11,14,05,02,7.20
2013,11,14,05,03,7.20
2013,11,14,05,04,7.20
2013,11,14,05,05,7.20
2013,11,14,05,06,7.20
2013,11,14,05,07,7.20
2013,11,14,05,08,7.20
2013,11,14,05,09,7.20
2013,11,14,05,10,7.20
2013,11,14,05,11,7.20
2013,11,14,05,12,7.20
2013,11,14,05,13,7.20
2013,11,14,05,14,7.20
2013,11,14,05,15,7.20
2013,11,14,05,16,7.20
2013,11,14,05,17,7.20
2013,11,14,05,18,7.20
2013,11,14,05,19,7.20
2013,11,14,05,20,7.20
2013,11,14,05,21,7.20
2013,11,14,05,22,7.20
2013,11,14,05,23,7.20
2013,11,14,05,24,7.10
2013,11,14,05,25,7.10
2013,11,14,05,26,7.20
2013,11,14,05,27,7.10
2013,11,14,05,28,7.10
2013,11,14,05,29,7.10
2013,11,14,05,30,7.10
2013,11,14,05,31,7.20
2013,11,14,05,32,7.20
2013,11,14,05,33,7.20
2013,11,14,05,34,7.20
2013,11,14,05,35,7.20
2013,11,14,05,36,7.20
2013,11,14,05,37,7.20
2013,11,14,05,38,7.20
2013,11,14,05,39,7.20
2013,11,14,05,40,7.20
2013,11,14,05,41,7.20
2013,11,14,05,42,7.20
2013,11,14,05,43,7.20
2013,11,14,05,44,7.20
2013,11,14,05,45,7.20
2013,11,14,05,46,7.20
2013,11,14,05,47,7.20
2013,11,14,05,48,7.20
2013,11,14,05,49,7.20
2013,11,14,05,50,7.20
2013,11,14,05,51,7.20
2013,11,14,05,52,7.20
2013,11,14,05,53,7.20
2013,11,14,05,54,7.20
2013,11,14,05,55,7.20
2013,11,14,05,56,7.20
2013,11,14,05,57,7.20
2013,11,14,05,58,7.20
2013,11,14,05,59,7.20
2013,11,14,06,00,7.20
2013,11,14,06,01,7.20
2013,11,14,06,02,7.20
2013,11,14,06,03,7.20
2013,11,14,06,04,7.20
2013,11,14,06,05,7.20
2013,11,14,06,06,7.20
2013,11,14,06,07,7.20
2013,11,14,06,08,7.20
2013,11,14,06,09,7.20
2013,11,14,06,10,7.20
2013,11,14,06,11,7.20
2013,11,14,06,12,7.20
2013,11,14,06,13,7.20
2013,11,14,06,14,7.20
2013,11,14,06,15,7.20
2013,11,14,06,16,7.20
2013,11,14,06,17,7.10
2013,11,14,06,18,7.10
2013,11,14,06,19,7.10
2013,11,14,06,20,7.10
2013,11,14,06,21,7.10
2013,11,14,06,22,7.10
2013,11,14,06,23,7.10
2013,11,14,06,24,7.00
2013,11,14,06,25,7.00
2013,11,14,06,26,7.00
2013,11,14,06,27,7.00
2013,11,14,06,28,7.00
2013,11,14,06,29,7.00
2013,11,14,06,30,7.00
2013,11,14,06,31,7.00
2013,11,14,06,32,7.00
2013,11,14,06,33,7.00
2013,11,14,06,34,6.90
2013,11,14,06,35,6.90
2013,11,14,06,36,6.90
2013,11,14,06,37,6.90
2013,11,14,06,38,6.90
2013,11,14,06,39,6.90
2013,11,14,06,40,6.80
2013,11,14,06,41,6.80
2013,11,14,06,42,6.80
2013,11,14,06,43,6.80
2013,11,14,06,44,6.80
2013,11,14,06,45,6.80
2013,11,14,06,46,6.80
2013,11,14,06,47,6.80
2013,11,14,06,48,6.80
2013,11,14,06,49,6.80
2013,11,14,06,50,6.80
2013,11,14,06,51,6.80
2013,11,14,06,52,6.80
2013,11,14,06,53,6.80
2013,11,14,06,54,6.80
2013,11,14,06,55,6.80
2013,11,14,06,56,6.80
2013,11,14,06,57,6.80
2013,11,14,06,58,6.80
2013,11,14,06,59,6.80
2013,11,14,07,00,6.80
2013,11,14,07,01,6.80
2013,11,14,07,02,6.80
2013,11,14,07,03,6.80
2013,11,14,07,04,6.80
2013,11,14,07,05,6.80
2013,11,14,07,06,6.80
2013,11,14,07,07,6.80
2013,11,14,07,08,6.80
2013,11,14,07,09,6.80
2013,11,14,07,10,6.80
2013,11,14,07,11,6.80
2013,11,14,07,12,6.80
2013,11,14,07,13,6.80
2013,11,14,07,14,6.80
2013,11,14,07,15,6.80
2013,11,14,07,16,6.80
2013,11,14,07,17,6.80
2013,11,14,07,18,6.80
2013,11,14,07,19,6.80
2013,11,14,07,20,6.80
2013,11,14,07,21,6.80
2013,11,14,07,22,6.80
2013,11,14,07,23,6.80
2013,11,14,07,24,6.80
2013,11,14,07,25,6.80
2013,11,14,07,26,6.70
2013,11,14,07,27,6.70
2013,11,14,07,28,6.70
2013,11,14,07,29,6.70
2013,11,14,07,30,6.70
2013,11,14,07,31,6.70
2013,11,14,07,32,6.70
2013,11,14,07,33,6.70
2013,11,14,07,34,6.70
2013,11,14,07,35,6.70
2013,11,14,07,36,6.70
2013,11,14,07,37,6.80
2013,11,14,07,38,6.80
2013,11,14,07,39,6.80
2013,11,14,07,40,6.80
2013,11,14,07,41,6.80
2013,11,14,07,42,6.70
2013,11,14,07,43,6.70
2013,11,14,07,44,6.70
2013,11,14,07,45,6.70
2013,11,14,07,46,6.70
2013,11,14,07,47,6.70
2013,11,14,07,48,6.70
2013,11,14,07,49,6.70
2013,11,14,07,50,6.70
2013,11,14,07,51,6.70
2013,11,14,07,52,6.70
2013,11,14,07,53,6.70
2013,11,14,07,54,6.70
2013,11,14,07,55,6.70
2013,11,14,07,56,6.70
2013,11,14,07,57,6.80
2013,11,14,07,58,6.80
2013,11,14,07,59,6.80
2013,11,14,08,00,6.80
2013,11,14,08,01,6.80
2013,11,14,08,02,6.80
2013,11,14,08,03,6.90
2013,11,14,08,04,6.90
2013,11,14,08,05,6.90
2013,11,14,08,06,6.90
2013,11,14,08,07,7.00
2013,11,14,08,08,7.00
2013,11,14,08,09,7.00
2013,11,14,08,10,7.10
2013,11,14,08,11,7.10
2013,11,14,08,12,7.10
2013,11,14,08,13,7.10
2013,11,14,08,14,7.10
2013,11,14,08,15,7.10
2013,11,14,08,16,7.20
2013,11,14,08,17,7.20
2013,11,14,08,18,7.20
2013,11,14,08,19,7.20
2013,11,14,08,20,7.20
2013,11,14,08,21,7.20
2013,11,14,08,22,7.20
2013,11,14,08,23,7.20
2013,11,14,08,24,7.20
2013,11,14,08,25,7.20
2013,11,14,08,26,7.20
2013,11,14,08,27,7.20
2013,11,14,08,28,7.20
2013,11,14,08,29,7.30
2013,11,14,08,30,7.30
2013,11,14,08,31,7.30
2013,11,14,08,32,7.30
2013,11,14,08,33,7.30
2013,11,14,08,34,7.30
2013,11,14,08,35,7.30
2013,11,14,08,36,7.30
2013,11,14,08,37,7.30
2013,11,14,08,38,7.30
2013,11,14,08,39,7.30
2013,11,14,08,40,7.30
2013,11,14,08,41,7.30
2013,11,14,08,42,7.30
2013,11,14,08,43,7.30
2013,11,14,08,44,7.30
2013,11,14,08,45,7.30
2013,11,14,08,46,7.40
2013,11,14,08,47,7.40
2013,11,14,08,48,7.40
2013,11,14,08,49,7.40
2013,11,14,08,50,7.40
2013,11,14,08,51,7.40
2013,11,14,08,52,7.40
2013,11,14,08,53,7.40
2013,11,14,08,54,7.40
2013,11,14,08,55,7.40
2013,11,14,08,56,7.40
2013,11,14,08,57,7.40
2013,11,14,08,58,7.40
2013,11,14,08,59,7.40
2013,11,14,09,00,7.40
2013,11,14,09,01,7.40
2013,11,14,09,02,7.40
2013,11,14,09,03,7.40
2013,11,14,09,04,7.40
2013,11,14,09,05,7.50
2013,11,14,09,06,7.50
2013,11,14,09,07,7.60
2013,11,14,09,08,7.60
2013,11,14,09,09,7.60
2013,11,14,09,10,7.60
2013,11,14,09,11,7.70
2013,11,14,09,12,7.70
2013,11,14,09,13,7.70
2013,11,14,09,14,7.70
2013,11,14,09,15,7.70
2013,11,14,09,16,7.70
2013,11,14,09,17,7.80
2013,11,14,09,18,7.80
2013,11,14,09,19,7.80
2013,11,14,09,20,7.90
2013,11,14,09,21,7.90
2013,11,14,09,22,7.90
2013,11,14,09,23,8.00
2013,11,14,09,24,8.00
2013,11,14,09,25,8.10
2013,11,14,09,26,8.10
2013,11,14,09,27,8.20
2013,11,14,09,28,8.20
2013,11,14,09,29,8.20
2013,11,14,09,30,8.30
2013,11,14,09,31,8.30
2013,11,14,09,32,8.40
2013,11,14,09,33,8.50
2013,11,14,09,34,8.60
2013,11,14,09,35,8.70
2013,11,14,09,36,8.70
2013,11,14,09,37,8.80
2013,11,14,09,38,8.80
2013,11,14,09,39,8.80
2013,11,14,09,40,8.80
2013,11,14,09,41,8.80
2013,11,14,09,42,8.80
2013,11,14,09,43,8.80
2013,11,14,09,44,8.80
2013,11,14,09,45,8.90
2013,11,14,09,46,8.90
2013,11,14,09,47,8.90
2013,11,14,09,48,9.00
2013,11,14,09,49,9.00
2013,11,14,09,50,9.00
2013,11,14,09,51,9.00
2013,11,14,09,52,9.00
2013,11,14,09,53,9.10
2013,11,14,09,54,9.00
2013,11,14,09,55,9.10
2013,11,14,09,56,9.10
2013,11,14,09,57,9.10
2013,11,14,09,58,9.10
2013,11,14,09,59,9.20
2013,11,14,10,00,9.20
2013,11,14,10,01,9.30
2013,11,14,10,02,9.30
2013,11,14,10,03,9.30
2013,11,14,10,04,9.30
2013,11,14,10,05,9.40
2013,11,14,10,06,9.40
2013,11,14,10,07,9.40
2013,11,14,10,08,9.40
2013,11,14,10,09,9.50
2013,11,14,10,10,9.50
2013,11,14,10,11,9.50
2013,11,14,10,12,9.60
2013,11,14,10,13,9.60
2013,11,14,10,14,9.60
2013,11,14,10,15,9.60
2013,11,14,10,16,9.60
2013,11,14,10,17,9.70
2013,11,14,10,18,9.70
2013,11,14,10,19,9.80
2013,11,14,10,20,9.80
2013,11,14,10,21,9.80
2013,11,14,10,22,9.80
2013,11,14,10,23,9.80
2013,11,14,10,24,9.90
2013,11,14,10,25,9.90
2013,11,14,10,26,9.90
2013,11,14,10,27,10.00
2013,11,14,10,28,10.00
2013,11,14,10,29,10.10
2013,11,14,10,30,10.10
2013,11,14,10,31,10.20
2013,11,14,10,32,10.30
2013,11,14,10,33,10.30
2013,11,14,10,34,10.40
2013,11,14,10,35,10.40
2013,11,14,10,36,10.40
2013,11,14,10,37,10.40
2013,11,14,10,38,10.30
2013,11,14,10,39,10.40
2013,11,14,10,40,10.40
2013,11,14,10,41,10.40
2013,11,14,10,42,10.40
2013,11,14,10,43,10.40
2013,11,14,10,44,10.40
2013,11,14,10,45,10.40
2013,11,14,10,46,10.40
2013,11,14,10,47,10.40
2013,11,14,10,48,10.40
2013,11,14,10,49,10.50
2013,11,14,10,50,10.50
2013,11,14,10,51,10.50
2013,11,14,10,52,10.60
2013,11,14,10,53,10.60
2013,11,14,10,54,10.60
2013,11,14,10,55,10.60
2013,11,14,10,56,10.60
2013,11,14,10,57,10.60
2013,11,14,10,58,10.60
2013,11,14,10,59,10.60
2013,11,14,11,00,10.70
2013,11,14,11,01,10.70
2013,11,14,11,02,10.70
2013,11,14,11,03,10.70
2013,11,14,11,04,10.70
2013,11,14,11,05,10.70
2013,11,14,11,06,10.70
2013,11,14,11,07,10.70
2013,11,14,11,08,10.70
2013,11,14,11,09,10.70
2013,11,14,11,10,10.70
2013,11,14,11,11,10.70
2013,11,14,11,12,10.70
2013,11,14,11,13,10.80
2013,11,14,11,14,10.80
2013,11,14,11,15,10.90
2013,11,14,11,16,10.90
2013,11,14,11,17,11.00
2013,11,14,11,18,11.00
2013,11,14,11,19,11.10
2013,11,14,11,20,11.10
2013,11,14,11,21,11.20
2013,11,14,11,22,11.20
2013,11,14,11,23,11.20
2013,11,14,11,24,11.20
2013,11,14,11,25,11.20
2013,11,14,11,26,11.20
2013,11,14,11,27,11.30
2013,11,14,11,28,11.30
2013,11,14,11,29,11.40
2013,11,14,11,30,11.40
2013,11,14,11,31,11.40
2013,11,14,11,32,11.50
2013,11,14,11,33,11.50
2013,11,14,11,34,11.50
2013,11,14,11,35,11.50
2013,11,14,11,36,11.50
2013,11,14,11,37,11.50
2013,11,14,11,38,11.60
2013,11,14,11,39,11.60
2013,11,14,11,40,11.60
2013,11,14,11,41,11.60
2013,11,14,11,42,11.60
2013,11,14,11,43,11.60
2013,11,14,11,44,11.60
2013,11,14,11,45,11.60
2013,11,14,11,46,11.50
2013,11,14,11,47,11.40
2013,11,14,11,48,11.30
2013,11,14,11,49,11.20
2013,11,14,11,50,11.10
2013,11,14,11,51,11.10
2013,11,14,11,52,11.10
2013,11,14,11,53,11.10
2013,11,14,11,54,11.00
2013,11,14,11,55,11.00
2013,11,14,11,56,10.90
2013,11,14,11,57,10.90
2013,11,14,11,58,11.00
2013,11,14,11,59,11.00
2013,11,14,12,00,11.00
2013,11,14,12,01,11.00
2013,11,14,12,02,11.00
2013,11,14,12,03,11.10
2013,11,14,12,04,11.10
2013,11,14,12,05,11.20
2013,11,14,12,06,11.20
2013,11,14,12,07,11.30
2013,11,14,12,08,11.30
2013,11,14,12,09,11.30
2013,11,14,12,10,11.30
2013,11,14,12,11,11.30
2013,11,14,12,12,11.30
2013,11,14,12,13,11.30
2013,11,14,12,14,11.30
2013,11,14,12,15,11.40
2013,11,14,12,16,11.40
2013,11,14,12,17,11.40
2013,11,14,12,18,11.40
2013,11,14,12,19,11.50
2013,11,14,12,20,11.50
2013,11,14,12,21,11.60
2013,11,14,12,22,11.60
2013,11,14,12,23,11.60
2013,11,14,12,24,11.60
2013,11,14,12,25,11.70
2013,11,14,12,26,11.70
2013,11,14,12,27,11.60
2013,11,14,12,28,11.60
2013,11,14,12,29,11.60
2013,11,14,12,30,11.60
2013,11,14,12,31,11.60
2013,11,14,12,32,11.60
2013,11,14,12,33,11.60
2013,11,14,12,34,11.60
2013,11,14,12,35,11.60
2013,11,14,12,36,11.60
2013,11,14,12,37,11.60
2013,11,14,12,38,11.60
2013,11,14,12,39,11.60
2013,11,14,12,40,11.70
2013,11,14,12,41,11.70
2013,11,14,12,42,11.80
2013,11,14,12,43,11.80
2013,11,14,12,44,11.90
2013,11,14,12,45,12.00
2013,11,14,12,46,12.00
2013,11,14,12,47,12.10
2013,11,14,12,48,12.20
2013,11,14,12,49,12.20
2013,11,14,12,50,12.20
2013,11,14,12,51,12.30
2013,11,14,12,52,12.30
2013,11,14,12,53,12.30
2013,11,14,12,54,12.40
2013,11,14,12,55,12.40
2013,11,14,12,56,12.40
2013,11,14,12,57,12.50
2013,11,14,12,58,12.50
2013,11,14,12,59,12.60
2013,11,14,13,00,12.60
2013,11,14,13,01,12.60
2013,11,14,13,02,12.60
2013,11,14,13,03,12.60
2013,11,14,13,04,12.60
2013,11,14,13,05,12.60
2013,11,14,13,06,12.60
2013,11,14,13,07,12.60
2013,11,14,13,08,12.60
2013,11,14,13,09,12.60
2013,11,14,13,10,12.50
2013,11,14,13,11,12.50
2013,11,14,13,12,12.40
2013,11,14,13,13,12.30
2013,11,14,13,14,12.30
2013,11,14,13,15,12.20
2013,11,14,13,16,12.20
2013,11,14,13,17,12.20
2013,11,14,13,18,12.20
2013,11,14,13,19,12.20
2013,11,14,13,20,12.20
2013,11,14,13,21,12.20
2013,11,14,13,22,12.20
2013,11,14,13,23,12.20
2013,11,14,13,24,12.20
2013,11,14,13,25,12.20
2013,11,14,13,26,12.30
2013,11,14,13,27,12.30
2013,11,14,13,28,12.30
2013,11,14,13,29,12.30
2013,11,14,13,30,12.30
2013,11,14,13,31,12.40
2013,11,14,13,32,12.30
2013,11,14,13,33,12.30
2013,11,14,13,34,12.20
2013,11,14,13,35,12.20
2013,11,14,13,36,12.20
2013,11,14,13,37,12.20
2013,11,14,13,38,12.20
2013,11,14,13,39,12.30
2013,11,14,13,40,12.30
2013,11,14,13,41,12.30
2013,11,14,13,42,12.30
2013,11,14,13,43,12.30
2013,11,14,13,44,12.30
2013,11,14,13,45,12.30
2013,11,14,13,46,12.30
2013,11,14,13,47,12.30
2013,11,14,13,48,12.30
2013,11,14,13,49,12.30
2013,11,14,13,50,12.20
2013,11,14,13,51,12.20
2013,11,14,13,52,12.10
2013,11,14,13,53,12.10
2013,11,14,13,54,12.00
2013,11,14,13,55,11.90
2013,11,14,13,56,11.90
2013,11,14,13,57,11.80
2013,11,14,13,58,11.80
2013,11,14,13,59,11.80
2013,11,14,14,00,11.70
2013,11,14,14,01,11.70
2013,11,14,14,02,11.70
2013,11,14,14,03,11.70
2013,11,14,14,04,11.60
2013,11,14,14,05,11.60
2013,11,14,14,06,11.50
2013,11,14,14,07,11.50
2013,11,14,14,08,11.40
2013,11,14,14,09,11.40
2013,11,14,14,10,11.30
2013,11,14,14,11,11.30
2013,11,14,14,12,11.30
2013,11,14,14,13,11.30
2013,11,14,14,14,11.20
2013,11,14,14,15,11.20
2013,11,14,14,16,11.20
2013,11,14,14,17,11.20
2013,11,14,14,18,11.30
2013,11,14,14,19,11.30
2013,11,14,14,20,11.30
2013,11,14,14,21,11.30
2013,11,14,14,22,11.30
2013,11,14,14,23,11.40
2013,11,14,14,24,11.40
2013,11,14,14,25,11.40
2013,11,14,14,26,11.30
2013,11,14,14,27,11.30
2013,11,14,14,28,11.30
2013,11,14,14,29,11.30
2013,11,14,14,30,11.30
2013,11,14,14,31,11.30
2013,11,14,14,32,11.30
2013,11,14,14,33,11.30
2013,11,14,14,34,11.40
2013,11,14,14,35,11.40
2013,11,14,14,36,11.40
2013,11,14,14,37,11.40
2013,11,14,14,38,11.40
2013,11,14,14,39,11.40
2013,11,14,14,40,11.40
2013,11,14,14,41,11.40
2013,11,14,14,42,11.30
2013,11,14,14,43,11.30
2013,11,14,14,44,11.30
2013,11,14,14,45,11.30
2013,11,14,14,46,11.30
2013,11,14,14,47,11.30
2013,11,14,14,48,11.30
2013,11,14,14,49,11.30
2013,11,14,14,50,11.30
2013,11,14,14,51,11.20
2013,11,14,14,52,11.20
2013,11,14,14,53,11.20
2013,11,14,14,54,11.10
2013,11,14,14,55,11.10
2013,11,14,14,56,11.10
2013,11,14,14,57,11.10
2013,11,14,14,58,11.10
2013,11,14,14,59,11.10
2013,11,14,15,00,11.10
2013,11,14,15,01,11.10
2013,11,14,15,02,11.10
2013,11,14,15,03,11.10
2013,11,14,15,04,11.10
2013,11,14,15,05,11.10
2013,11,14,15,06,11.00
2013,11,14,15,07,11.00
2013,11,14,15,08,10.90
2013,11,14,15,09,10.90
2013,11,14,15,10,10.90
2013,11,14,15,11,10.90
2013,11,14,15,12,10.90
2013,11,14,15,13,10.80
2013,11,14,15,14,10.80
2013,11,14,15,15,10.80
2013,11,14,15,16,10.80
2013,11,14,15,17,10.80
2013,11,14,15,18,10.80
2013,11,14,15,19,10.80
2013,11,14,15,20,10.80
2013,11,14,15,21,10.80
2013,11,14,15,22,10.70
2013,11,14,15,23,10.70
2013,11,14,15,24,10.70
2013,11,14,15,25,10.70
2013,11,14,15,26,10.70
2013,11,14,15,27,10.70
2013,11,14,15,28,10.70
2013,11,14,15,29,10.70
2013,11,14,15,30,10.70
2013,11,14,15,31,10.70
2013,11,14,15,32,10.70
2013,11,14,15,33,10.60
2013,11,14,15,34,10.60
2013,11,14,15,35,10.60
2013,11,14,15,36,10.60
2013,11,14,15,37,10.60
2013,11,14,15,38,10.60
2013,11,14,15,39,10.60
2013,11,14,15,40,10.60
2013,11,14,15,41,10.60
2013,11,14,15,42,10.60
2013,11,14,15,43,10.60
2013,11,14,15,44,10.60
2013,11,14,15,45,10.60
2013,11,14,15,46,10.60
2013,11,14,15,47,10.60
2013,11,14,15,48,10.60
2013,11,14,15,49,10.60
2013,11,14,15,50,10.60
2013,11,14,15,51,10.60
2013,11,14,15,52,10.50
2013,11,14,15,53,10.50
2013,11,14,15,54,10.40
2013,11,14,15,55,10.30
2013,11,14,15,56,10.30
2013,11,14,15,57,10.30
2013,11,14,15,58,10.20
2013,11,14,15,59,10.20
2013,11,14,16,00,10.10
2013,11,14,16,01,10.10
2013,11,14,16,02,10.00
2013,11,14,16,03,9.90
2013,11,14,16,04,9.80
2013,11,14,16,05,9.70
2013,11,14,16,06,9.70
2013,11,14,16,07,9.60
2013,11,14,16,08,9.60
2013,11,14,16,09,9.50
2013,11,14,16,10,9.40
2013,11,14,16,11,9.40
2013,11,14,16,12,9.40
2013,11,14,16,13,9.30
2013,11,14,16,14,9.30
2013,11,14,16,15,9.30
2013,11,14,16,16,9.20
2013,11,14,16,17,9.20
2013,11,14,16,18,9.20
2013,11,14,16,19,9.10
2013,11,14,16,20,9.10
2013,11,14,16,21,9.10
2013,11,14,16,22,9.10
2013,11,14,16,23,9.00
2013,11,14,16,24,9.00
2013,11,14,16,25,8.90
2013,11,14,16,26,8.90
2013,11,14,16,27,8.80
2013,11,14,16,28,8.80
2013,11,14,16,29,8.80
2013,11,14,16,30,8.70
2013,11,14,16,31,8.70
2013,11,14,16,32,8.70
2013,11,14,16,33,8.70
2013,11,14,16,34,8.60
2013,11,14,16,35,8.60
2013,11,14,16,36,8.60
2013,11,14,16,37,8.60
2013,11,14,16,38,8.60
2013,11,14,16,39,8.50
2013,11,14,16,40,8.50
2013,11,14,16,41,8.50
2013,11,14,16,42,8.50
2013,11,14,16,43,8.50
2013,11,14,16,44,8.50
2013,11,14,16,45,8.50
2013,11,14,16,46,8.50
2013,11,14,16,47,8.50
2013,11,14,16,48,8.50
2013,11,14,16,49,8.50
2013,11,14,16,50,8.50
2013,11,14,16,51,8.40
2013,11,14,16,52,8.40
2013,11,14,16,53,8.40
2013,11,14,16,54,8.40
2013,11,14,16,55,8.40
2013,11,14,16,56,8.40
2013,11,14,16,57,8.40
2013,11,14,16,58,8.40
2013,11,14,16,59,8.40
2013,11,14,17,00,8.40
2013,11,14,17,01,8.40
2013,11,14,17,02,8.40
2013,11,14,17,03,8.30
2013,11,14,17,04,8.30
2013,11,14,17,05,8.30
2013,11,14,17,06,8.30
2013,11,14,17,07,8.30
2013,11,14,17,08,8.20
2013,11,14,17,09,8.20
2013,11,14,17,10,8.20
2013,11,14,17,11,8.20
2013,11,14,17,12,8.20
2013,11,14,17,13,8.10
2013,11,14,17,14,8.10
2013,11,14,17,15,8.10
2013,11,14,17,16,8.10
2013,11,14,17,17,8.00
2013,11,14,17,18,8.00
2013,11,14,17,19,8.00
2013,11,14,17,20,8.00
2013,11,14,17,21,7.90
2013,11,14,17,22,7.90
2013,11,14,17,23,7.90
2013,11,14,17,24,7.90
2013,11,14,17,25,7.90
2013,11,14,17,26,7.80
2013,11,14,17,27,7.80
2013,11,14,17,28,7.80
2013,11,14,17,29,7.80
2013,11,14,17,30,7.80
2013,11,14,17,31,7.70
2013,11,14,17,32,7.70
2013,11,14,17,33,7.70
2013,11,14,17,34,7.60
2013,11,14,17,35,7.60
2013,11,14,17,36,7.60
2013,11,14,17,37,7.50
2013,11,14,17,38,7.50
2013,11,14,17,39,7.50
2013,11,14,17,40,7.40
2013,11,14,17,41,7.40
2013,11,14,17,42,7.40
2013,11,14,17,43,7.30
2013,11,14,17,44,7.30
2013,11,14,17,45,7.30
2013,11,14,17,46,7.30
2013,11,14,17,47,7.30
2013,11,14,17,48,7.20
2013,11,14,17,49,7.20
2013,11,14,17,50,7.20
2013,11,14,17,51,7.20